Hourly Weather Holychivka

Today, 16 April, Friday

Time Temperature Precipitation Wind Pressure Humidity
00:00 +3°C° 0.1 mm 4 mps 740 mmHg 95%
01:00 +1°C° 0.1 mm 4 mps 740 mmHg 95%
02:00 +1°C° 0 mm 4 mps 740 mmHg 95%
03:00 +1°C° 0.2 mm 4 mps 739 mmHg 96%
04:00 +1°C° 0.2 mm 4 mps 739 mmHg 96%
05:00 +2°C° 0.2 mm 3 mps 739 mmHg 96%
06:00 +2°C° 0.7 mm 3 mps 739 mmHg 96%
07:00 +2°C° 0.7 mm 3 mps 739 mmHg 97%
08:00 +1°C° 0 mm 3 mps 739 mmHg 97%
09:00 +2°C° 0.3 mm 3 mps 739 mmHg 96%
10:00 +2°C° 0.3 mm 3 mps 739 mmHg 95%
11:00 +2°C° 0.3 mm 3 mps 739 mmHg 95%
12:00 +2°C° 0 mm 3 mps 740 mmHg 95%
13:00 +2°C° 0 mm 3 mps 740 mmHg 94%
14:00 +2°C° 0 mm 3 mps 740 mmHg 94%
15:00 +2°C° 0 mm 3 mps 740 mmHg 95%
16:00 +2°C° 0 mm 3 mps 740 mmHg 95%
17:00 +2°C° 0 mm 3 mps 740 mmHg 96%
18:00 +2°C° 0 mm 3 mps 741 mmHg 96%
19:00 +1°C° 0 mm 3 mps 741 mmHg 96%
20:00 +2°C° 0 mm 2 mps 741 mmHg 97%
21:00 +1°C° 0.1 mm 3 mps 742 mmHg 97%
22:00 +1°C° 0.1 mm 3 mps 742 mmHg 97%
23:00 +1°C° 0.1 mm 3 mps 742 mmHg 97%

Tomorrow, 17 April, Saturday

Time Temperature Precipitation Wind Pressure Humidity
00:00 +2°C° 0 mm 2 mps 742 mmHg 97%
01:00 +2°C° 0 mm 2 mps 742 mmHg 97%
02:00 +2°C° 0 mm 2 mps 743 mmHg 97%
03:00 +2°C° 0 mm 2 mps 743 mmHg 98%
04:00 +2°C° 0 mm 2 mps 743 mmHg 98%
05:00 +2°C° 0 mm 2 mps 743 mmHg 98%
06:00 +2°C° 0 mm 2 mps 743 mmHg 97%
07:00 +3°C° 0 mm 2 mps 744 mmHg 97%
08:00 +3°C° 0 mm 2 mps 744 mmHg 96%
09:00 +4°C° 0 mm 2 mps 744 mmHg 94%
10:00 +4°C° 0 mm 2 mps 744 mmHg 92%
11:00 +6°C° 0 mm 1 mps 745 mmHg 90%
12:00 +6°C° 0.1 mm 1 mps 745 mmHg 88%
13:00 +7°C° 0.1 mm 1 mps 745 mmHg 86%
14:00 +7°C° 0.1 mm 1 mps 745 mmHg 84%
15:00 +8°C° 0 mm 1 mps 745 mmHg 83%
16:00 +8°C° 0 mm 1 mps 745 mmHg 81%
17:00 +8°C° 0 mm 1 mps 745 mmHg 80%
18:00 +8°C° 0 mm 1 mps 745 mmHg 84%
19:00 +6°C° 0 mm 2 mps 746 mmHg 88%
20:00 +5°C° 0 mm 2 mps 746 mmHg 91%
21:00 +4°C° 0 mm 2 mps 745 mmHg 93%
22:00 +4°C° 0 mm 2 mps 745 mmHg 94%
23:00 +2°C° 0 mm 3 mps 745 mmHg 95%

Day after tomorrow, 18 April, Sunday

Time Temperature Precipitation Wind Pressure Humidity
00:00 +3°C° 0 mm 2 mps 745 mmHg 95%
01:00 +2°C° 0 mm 2 mps 745 mmHg 95%
02:00 +2°C° 0 mm 2 mps 745 mmHg 95%
03:00 +1°C° 0 mm 3 mps 745 mmHg 96%
04:00 +1°C° 0 mm 3 mps 745 mmHg 96%
05:00 +1°C° 0 mm 3 mps 744 mmHg 96%
06:00 +2°C° 0 mm 3 mps 744 mmHg 92%
07:00 +4°C° 0 mm 4 mps 744 mmHg 89%
08:00 +5°C° 0 mm 4 mps 744 mmHg 85%
09:00 +6°C° 0.1 mm 4 mps 744 mmHg 85%
10:00 +6°C° 0.1 mm 4 mps 743 mmHg 84%
11:00 +7°C° 0.1 mm 4 mps 743 mmHg 84%
12:00 +8°C° 0.1 mm 3 mps 744 mmHg 85%
13:00 +8°C° 0.1 mm 2 mps 744 mmHg 86%
14:00 +8°C° 0.1 mm 2 mps 744 mmHg 87%
15:00 +8°C° 0 mm 2 mps 744 mmHg 83%
16:00 +9°C° 0 mm 2 mps 744 mmHg 78%
17:00 +9°C° 0 mm 2 mps 744 mmHg 73%
18:00 +8°C° 0 mm 2 mps 744 mmHg 75%
19:00 +7°C° 0 mm 2 mps 744 mmHg 78%
20:00 +7°C° 0 mm 1 mps 744 mmHg 80%
21:00 +6°C° 0 mm 1 mps 744 mmHg 81%
22:00 +6°C° 0 mm 1 mps 744 mmHg 82%
23:00 +5°C° 0 mm 1 mps 744 mmHg 83%

19 April, Monday

Time Temperature Precipitation Wind Pressure Humidity
00:00 +5°C° 0 mm 1 mps 744 mmHg 85%
01:00 +5°C° 0 mm 1 mps 744 mmHg 86%
02:00 +4°C° 0 mm 1 mps 744 mmHg 87%
03:00 +4°C° 0 mm 1 mps 744 mmHg 89%
04:00 +3°C° 0 mm 2 mps 744 mmHg 91%
05:00 +2°C° 0 mm 2 mps 743 mmHg 92%
06:00 +4°C° 0 mm 2 mps 743 mmHg 88%
07:00 +5°C° 0 mm 2 mps 743 mmHg 84%
08:00 +7°C° 0 mm 2 mps 743 mmHg 80%
09:00 +8°C° 0 mm 2 mps 743 mmHg 73%
10:00 +9°C° 0 mm 2 mps 743 mmHg 67%
11:00 +10°C° 0 mm 2 mps 742 mmHg 60%
12:00 +10°C° 0 mm 2 mps 742 mmHg 61%
13:00 +10°C° 0 mm 2 mps 742 mmHg 62%
14:00 +10°C° 0 mm 2 mps 742 mmHg 62%
15:00 +9°C° 0 mm 2 mps 741 mmHg 64%
16:00 +9°C° 0 mm 2 mps 741 mmHg 66%
17:00 +9°C° 0 mm 2 mps 741 mmHg 67%
18:00 +8°C° 0.1 mm 2 mps 740 mmHg 73%
19:00 +8°C° 0.1 mm 2 mps 740 mmHg 78%
20:00 +7°C° 0.1 mm 2 mps 740 mmHg 84%
21:00 +6°C° 0 mm 2 mps 740 mmHg 87%
22:00 +5°C° 0 mm 2 mps 739 mmHg 90%
23:00 +4°C° 0 mm 2 mps 739 mmHg 94%

20 April, Tuesday

Time Temperature Precipitation Wind Pressure Humidity
00:00 +4°C° 0 mm 2 mps 739 mmHg 95%
01:00 +4°C° 0 mm 2 mps 738 mmHg 95%
02:00 +3°C° 0 mm 2 mps 738 mmHg 96%
03:00 +3°C° 0 mm 2 mps 737 mmHg 96%
04:00 +3°C° 0 mm 2 mps 737 mmHg 96%
05:00 +3°C° 0 mm 2 mps 736 mmHg 95%
06:00 +3°C° 0 mm 3 mps 736 mmHg 89%
07:00 +4°C° 0 mm 4 mps 735 mmHg 83%
08:00 +6°C° 0 mm 5 mps 735 mmHg 77%
09:00 +6°C° 0 mm 5 mps 735 mmHg 72%
10:00 +7°C° 0 mm 6 mps 734 mmHg 66%
11:00 +8°C° 0 mm 6 mps 734 mmHg 61%
12:00 +8°C° 0 mm 6 mps 734 mmHg 61%
13:00 +8°C° 0 mm 6 mps 733 mmHg 62%
14:00 +8°C° 0 mm 6 mps 733 mmHg 62%
15:00 +8°C° 0 mm 6 mps 733 mmHg 63%
16:00 +8°C° 0 mm 6 mps 733 mmHg 63%
17:00 +8°C° 0 mm 5 mps 733 mmHg 64%
18:00 +7°C° 0 mm 5 mps 733 mmHg 69%
19:00 +6°C° 0 mm 5 mps 733 mmHg 74%
20:00 +5°C° 0 mm 5 mps 734 mmHg 79%
21:00 +5°C° 0 mm 5 mps 734 mmHg 79%
22:00 +5°C° 0 mm 5 mps 734 mmHg 80%
23:00 +4°C° 0 mm 6 mps 734 mmHg 80%

21 April, Wednesday

Time Temperature Precipitation Wind Pressure Humidity
00:00 +4°C° 0 mm 6 mps 734 mmHg 82%
01:00 +4°C° 0 mm 6 mps 734 mmHg 83%
02:00 +4°C° 0 mm 6 mps 735 mmHg 85%
03:00 +4°C° 0 mm 6 mps 735 mmHg 84%
04:00 +4°C° 0 mm 6 mps 735 mmHg 82%
05:00 +3°C° 0 mm 6 mps 735 mmHg 81%
06:00 +4°C° 0 mm 6 mps 736 mmHg 80%
07:00 +4°C° 0 mm 6 mps 736 mmHg 80%
08:00 +5°C° 0 mm 7 mps 737 mmHg 79%
09:00 +6°C° 0.1 mm 7 mps 737 mmHg 73%
10:00 +8°C° 0.1 mm 7 mps 737 mmHg 67%
11:00 +9°C° 0.1 mm 7 mps 738 mmHg 61%
12:00 +9°C° 0 mm 7 mps 738 mmHg 60%
13:00 +9°C° 0 mm 6 mps 739 mmHg 58%
14:00 +10°C° 0 mm 6 mps 739 mmHg 57%
15:00 +10°C° 0 mm 5 mps 739 mmHg 58%
16:00 +10°C° 0 mm 5 mps 740 mmHg 58%
17:00 +11°C° 0 mm 4 mps 740 mmHg 59%
18:00 +10°C° 0 mm 3 mps 740 mmHg 66%
19:00 +8°C° 0 mm 2 mps 741 mmHg 72%
20:00 +7°C° 0 mm 2 mps 741 mmHg 79%
21:00 +6°C° 0 mm 2 mps 742 mmHg 81%
22:00 +6°C° 0 mm 2 mps 742 mmHg 82%
23:00 +7°C° 0 mm 1 mps 742 mmHg 84%
Show more